Meteo orario Abay

Oggi, 8 Marzo, Lunedi

Tempo Temperatura Precipitazioni Vento Pressione Umidità
00:00 +5°C° 0 mm 1 m/s 691 mm Hg 78%
01:00 +5°C° 0 mm 1 m/s 691 mm Hg 78%
02:00 +5°C° 0 mm 1 m/s 690 mm Hg 78%
03:00 +4°C° 0 mm 1 m/s 691 mm Hg 78%
04:00 +4°C° 0 mm 1 m/s 691 mm Hg 78%
05:00 +5°C° 0 mm 1 m/s 691 mm Hg 80%
06:00 +5°C° 0 mm 1 m/s 692 mm Hg 79%
07:00 +6°C° 0 mm 1 m/s 692 mm Hg 78%
08:00 +6°C° 0 mm 0 m/s 692 mm Hg 76%
09:00 +7°C° 0 mm 1 m/s 692 mm Hg 75%
10:00 +8°C° 0 mm 1 m/s 692 mm Hg 74%
11:00 +9°C° 0 mm 1 m/s 692 mm Hg 73%
12:00 +9°C° 0 mm 1 m/s 692 mm Hg 73%
13:00 +10°C° 0 mm 1 m/s 692 mm Hg 72%
14:00 +10°C° 0 mm 1 m/s 693 mm Hg 71%
15:00 +9°C° 0.1 mm 1 m/s 693 mm Hg 73%
16:00 +9°C° 0.1 mm 1 m/s 694 mm Hg 75%
17:00 +8°C° 0.1 mm 2 m/s 694 mm Hg 77%
18:00 +8°C° 0.1 mm 1 m/s 695 mm Hg 78%
19:00 +7°C° 0.1 mm 1 m/s 695 mm Hg 79%
20:00 +6°C° 0.1 mm 1 m/s 696 mm Hg 80%
21:00 +6°C° 0 mm 1 m/s 696 mm Hg 80%
22:00 +5°C° 0 mm 2 m/s 697 mm Hg 81%
23:00 +5°C° 0 mm 2 m/s 697 mm Hg 81%

Domani, 9 Marzo, Martedi

Tempo Temperatura Precipitazioni Vento Pressione Umidità
00:00 +5°C° 0 mm 2 m/s 696 mm Hg 82%
01:00 +4°C° 0 mm 2 m/s 696 mm Hg 83%
02:00 +4°C° 0 mm 2 m/s 695 mm Hg 84%
03:00 +4°C° 0 mm 2 m/s 695 mm Hg 82%
04:00 +4°C° 0 mm 2 m/s 695 mm Hg 80%
05:00 +4°C° 0 mm 2 m/s 695 mm Hg 78%
06:00 +4°C° 0 mm 2 m/s 695 mm Hg 77%
07:00 +5°C° 0 mm 2 m/s 694 mm Hg 76%
08:00 +5°C° 0 mm 2 m/s 694 mm Hg 74%
09:00 +6°C° 0 mm 2 m/s 693 mm Hg 73%
10:00 +7°C° 0 mm 2 m/s 693 mm Hg 71%
11:00 +8°C° 0 mm 2 m/s 692 mm Hg 69%
12:00 +9°C° 0 mm 2 m/s 692 mm Hg 66%
13:00 +10°C° 0 mm 2 m/s 691 mm Hg 64%
14:00 +10°C° 0 mm 2 m/s 691 mm Hg 62%
15:00 +10°C° 0 mm 2 m/s 691 mm Hg 63%
16:00 +10°C° 0 mm 2 m/s 690 mm Hg 63%
17:00 +9°C° 0 mm 2 m/s 690 mm Hg 64%
18:00 +9°C° 0 mm 2 m/s 690 mm Hg 64%
19:00 +8°C° 0 mm 2 m/s 691 mm Hg 63%
20:00 +8°C° 0 mm 2 m/s 691 mm Hg 63%
21:00 +7°C° 0 mm 2 m/s 691 mm Hg 62%
22:00 +7°C° 0 mm 2 m/s 690 mm Hg 61%
23:00 +7°C° 0 mm 2 m/s 690 mm Hg 61%

Dopodomani, 10 Marzo, Mercoledi

Tempo Temperatura Precipitazioni Vento Pressione Umidità
00:00 +7°C° 0 mm 2 m/s 690 mm Hg 60%
01:00 +7°C° 0 mm 2 m/s 689 mm Hg 60%
02:00 +6°C° 0 mm 2 m/s 689 mm Hg 60%
03:00 +6°C° 0 mm 2 m/s 688 mm Hg 59%
04:00 +6°C° 0 mm 2 m/s 688 mm Hg 59%
05:00 +5°C° 0 mm 3 m/s 688 mm Hg 59%
06:00 +7°C° 0 mm 3 m/s 688 mm Hg 59%
07:00 +7°C° 0 mm 2 m/s 688 mm Hg 60%
08:00 +8°C° 0 mm 2 m/s 688 mm Hg 61%
09:00 +9°C° 0 mm 2 m/s 688 mm Hg 60%
10:00 +10°C° 0 mm 2 m/s 688 mm Hg 58%
11:00 +12°C° 0 mm 2 m/s 688 mm Hg 56%
12:00 +13°C° 0 mm 2 m/s 688 mm Hg 56%
13:00 +13°C° 0 mm 2 m/s 688 mm Hg 55%
14:00 +14°C° 0 mm 1 m/s 688 mm Hg 55%
15:00 +13°C° 0.2 mm 1 m/s 688 mm Hg 57%
16:00 +13°C° 0.2 mm 1 m/s 688 mm Hg 60%
17:00 +11°C° 0.2 mm 0 m/s 688 mm Hg 62%
18:00 +11°C° 0 mm 1 m/s 689 mm Hg 65%
19:00 +10°C° 0 mm 1 m/s 689 mm Hg 68%
20:00 +9°C° 0 mm 2 m/s 690 mm Hg 70%
21:00 +8°C° 0.1 mm 2 m/s 689 mm Hg 73%
22:00 +9°C° 0.1 mm 1 m/s 689 mm Hg 76%
23:00 +8°C° 0.1 mm 1 m/s 689 mm Hg 79%

11 Marzo, Giovedi

Tempo Temperatura Precipitazioni Vento Pressione Umidità
00:00 +8°C° 0 mm 1 m/s 688 mm Hg 79%
01:00 +8°C° 0 mm 1 m/s 688 mm Hg 79%
02:00 +8°C° 0 mm 1 m/s 687 mm Hg 80%
03:00 +6°C° 0.5 mm 2 m/s 688 mm Hg 84%
04:00 +4°C° 0.5 mm 3 m/s 688 mm Hg 88%
05:00 +4°C° 0.5 mm 4 m/s 689 mm Hg 93%
06:00 +3°C° 2.6 mm 3 m/s 690 mm Hg 94%
07:00 +3°C° 2.6 mm 2 m/s 690 mm Hg 96%
08:00 +3°C° 2.6 mm 1 m/s 691 mm Hg 97%
09:00 +2°C° 1 mm 2 m/s 691 mm Hg 97%
10:00 +2°C° 1 mm 2 m/s 691 mm Hg 98%
11:00 +2°C° 1 mm 2 m/s 692 mm Hg 98%
12:00 +2°C° 0.8 mm 2 m/s 692 mm Hg 97%
13:00 +2°C° 0.8 mm 2 m/s 692 mm Hg 96%
14:00 +2°C° 0.8 mm 2 m/s 692 mm Hg 95%
15:00 +2°C° 0.1 mm 2 m/s 692 mm Hg 94%
16:00 +4°C° 0.1 mm 1 m/s 693 mm Hg 93%
17:00 +4°C° 0.1 mm 1 m/s 693 mm Hg 91%
18:00 +4°C° 0.1 mm 1 m/s 693 mm Hg 88%
19:00 +4°C° 0.1 mm 1 m/s 694 mm Hg 85%
20:00 +2°C° 0.1 mm 2 m/s 694 mm Hg 82%
21:00 +2°C° 0 mm 2 m/s 694 mm Hg 80%
22:00 +2°C° 0 mm 2 m/s 694 mm Hg 79%
23:00 +1°C° 0 mm 2 m/s 694 mm Hg 77%

12 Marzo, Venerdi

Tempo Temperatura Precipitazioni Vento Pressione Umidità
00:00 +1°C° 0 mm 2 m/s 693 mm Hg 76%
01:00 0°C° 0 mm 3 m/s 693 mm Hg 74%
02:00 0°C° 0 mm 3 m/s 693 mm Hg 72%
03:00 0°C° 0 mm 3 m/s 693 mm Hg 69%
04:00 0°C° 0 mm 3 m/s 693 mm Hg 65%
05:00 0°C° 0 mm 3 m/s 692 mm Hg 62%
06:00 +1°C° 0 mm 3 m/s 692 mm Hg 63%
07:00 +2°C° 0 mm 3 m/s 692 mm Hg 64%
08:00 +3°C° 0 mm 2 m/s 692 mm Hg 66%
09:00 +5°C° 0 mm 2 m/s 691 mm Hg 66%
10:00 +6°C° 0 mm 2 m/s 690 mm Hg 67%
11:00 +7°C° 0 mm 2 m/s 689 mm Hg 67%
12:00 +8°C° 0 mm 2 m/s 688 mm Hg 64%
13:00 +9°C° 0 mm 2 m/s 688 mm Hg 62%
14:00 +10°C° 0 mm 3 m/s 687 mm Hg 59%
15:00 +9°C° 0 mm 3 m/s 686 mm Hg 59%
16:00 +9°C° 0 mm 2 m/s 686 mm Hg 59%
17:00 +8°C° 0 mm 2 m/s 686 mm Hg 59%
18:00 +8°C° 0 mm 2 m/s 685 mm Hg 56%
19:00 +7°C° 0 mm 3 m/s 685 mm Hg 54%
20:00 +7°C° 0 mm 3 m/s 685 mm Hg 51%
21:00 +7°C° 0 mm 3 m/s 686 mm Hg 53%
22:00 +7°C° 0 mm 3 m/s 686 mm Hg 54%
23:00 +7°C° 0 mm 3 m/s 686 mm Hg 56%

13 Marzo, Sabato

Tempo Temperatura Precipitazioni Vento Pressione Umidità
00:00 +5°C° 0 mm 3 m/s 686 mm Hg 56%
01:00 +5°C° 0 mm 3 m/s 686 mm Hg 55%
02:00 +5°C° 0 mm 3 m/s 686 mm Hg 54%
03:00 +5°C° 0 mm 3 m/s 686 mm Hg 56%
04:00 +4°C° 0 mm 3 m/s 685 mm Hg 57%
05:00 +5°C° 0 mm 2 m/s 685 mm Hg 59%
06:00 +5°C° 0 mm 2 m/s 685 mm Hg 60%
07:00 +6°C° 0 mm 2 m/s 685 mm Hg 62%
08:00 +6°C° 0 mm 2 m/s 685 mm Hg 63%
09:00 +7°C° 0 mm 2 m/s 685 mm Hg 64%
10:00 +7°C° 0 mm 2 m/s 685 mm Hg 66%
11:00 +8°C° 0 mm 2 m/s 685 mm Hg 67%
12:00 +8°C° 0 mm 2 m/s 685 mm Hg 66%
13:00 +9°C° 0 mm 2 m/s 686 mm Hg 65%
14:00 +9°C° 0 mm 2 m/s 686 mm Hg 65%
15:00 +9°C° 0 mm 2 m/s 686 mm Hg 67%
16:00 +9°C° 0 mm 1 m/s 686 mm Hg 70%
17:00 +9°C° 0 mm 1 m/s 687 mm Hg 73%
18:00 +8°C° 0 mm 1 m/s 687 mm Hg 73%
19:00 +7°C° 0 mm 1 m/s 687 mm Hg 73%
20:00 +7°C° 0 mm 1 m/s 687 mm Hg 72%
21:00 +6°C° 0 mm 1 m/s 687 mm Hg 74%
22:00 +6°C° 0 mm 1 m/s 687 mm Hg 75%
23:00 +6°C° 0 mm 1 m/s 687 mm Hg 76%
Mostrare altro

Abbiamo bisogno del tuo consenso

Meteoprog e i nostri fornitori di servizi possono memorizzare e accedere a dati personali come cookie, identificatori di dispositivi o altre tecnologie simili sul tuo dispositivo e possono elaborare tali dati per personalizzare i contenuti e gli annunci, nonché fornire funzionalità dei social media e analizzarne il traffico.

  • Archiviare e/o accedere alle informazioni sul tuo dispositivo

    Cookie, identificatori di dispositivi o altre informazioni possono essere memorizzati o resi accessibili sul tuo dispositivo per le finalità sopra indicate.

  • Annunci e contenuti personalizzati, misurazione di annunci e contenuti, approfondimenti sul pubblico e sviluppo di prodotti

    Gli annunci e i contenuti possono essere personalizzati in base a un profilo. È possibile aggiungere più dati per personalizzare meglio annunci e contenuti. È possibile misurare il rendimento degli annunci e dei contenuti. È possibile ricavare informazioni sul pubblico che ha visto gli annunci e i contenuti. Tali dati possono essere utilizzati per sviluppare o migliorare l'esperienza, i sistemi e il software dell'utente.

Cliccando su “Accetto”, acconsenti all'uso di cookie, identificatori di dispositivo, web beacon o altre tecnologie simili. Puoi modificare le impostazioni nel browser del tuo dispositivo.

Per determinati scopi, è possibile fare affidamento su interessi legali, piuttosto che sul consenso. Puoi approfondire questo argomento consultando la nostra Informativa sulla privacy e sui cookie.